sat.trackr.live / text

‹ back to catalog

STARLINK-35557

NORAD 66237 · 2025-245D

PAYLOAD ACTIVE UNKNOWN

§ Identity

Operator
Country
US
Launch date
2025-10-29
Launch site
AFETR
Launch vehicle
Mass (kg)
RCS (m²)

Purposes: comms

External: N2YO · Heavens-Above · Gunter

§ Orbital elements

Epoch: 2026-05-25T02:05:14.049888Z

Period
93.85 min
Inclination
53.1592°
Eccentricity
0.0002266
Mean motion
15.34405550 rev/d
Perigee alt
461.1 km
Apogee alt
464.2 km
Semi-major
6,840.8 km
B*
1.0009e-3
RAAN
287.5948°
Arg perigee
81.9326°
Mean anomaly
278.1934°
Rev number
3,297

§ Raw data

STARLINK-355571 66237U 25245D   26145.08696817  .00033598  00000+0  10009-2 0  99942 66237  53.1592 287.5948 0002266  81.9326 278.1934 15.34405550 32976

JSON: /api/v1/satellites/66237 · /tle

For live sub-satellite position, see the globe view (requires WebGL).

§ Visibility from observer

Set your observer location to see the next 7 days of passes ≥ 10°. The values pass through the URL so the page stays shareable.

No JS? Fill the form by hand. The geolocation button needs JavaScript.